Weather History for Faribault, MN

Change the Weather History Date:

Friday, November 23, 2012

  Actual Average Record
Temperature  
Mean Temperature 20 °F -  
Max Temperature 26 °F 36 °F 59 °F (2001)
Min Temperature 14 °F 20 °F -5 °F (1950)
Degree Days  
Heating Degree Days 44    
Moisture  
Dew Point 15 °F    
Average Humidity 80    
Maximum Humidity 93    
Minimum Humidity 64    
Precipitation  
Precipitation 0.00 in - - ()
Sea Level Pressure  
Sea Level Pressure 30.25 in    
Wind  
Wind Speed 19 mph (WNW)    
Max Wind Speed 29 mph    
Max Gust Speed 37 mph    
Visibility 8 miles    
Events Snow    
Averages and records for this station are not official NWS values.
T = Trace of Precipitation, MM = Missing Value Source: NWS Daily Summary

Daily Weather History Graph

Daily Weather History Graph

Search for Another Location

Airport:

Trip Planner

Search our weather history database for the weather conditions in past years. The results will help you decide how hot, cold, wet, or windy it might be!

Date:

Astronomy

Nov. 23, 2012 Rise Set
Actual Time 7:20 AM CST 4:39 PM CST
Civil Twilight 6:48 AM CST 5:11 PM CST
Nautical Twilight 6:12 AM CST 5:46 PM CST
Astronomical Twilight 5:37 AM CST 6:21 PM CST
Moon 2:02 PM CST (11/23) 2:30 AM CST (11/23)
Length of Visible Light 10h 23m
Length of Day
9h 19m
Waxing Gibbous, 80% of the Moon is Illuminated
Nov 23
Waxing Gibbous
Nov 28
Full
Dec 6
Last Quarter
Dec 13
New
Dec 19
First Quarter

Hourly Weather History & Observations

Time (CST) Temp. Windchill Dew Point Humidity Pressure Visibility Wind Dir Wind Speed Gust Speed Precip Events Conditions
12:14 AM 24.8 °F 8.1 °F 17.6 °F 74% 30.02 in 10.0 mi West 28.8 mph 35.7 mph N/A   Overcast
12:34 AM 21.2 °F 6.0 °F 17.6 °F 86% 30.03 in 5.0 mi West 19.6 mph 32.2 mph N/A   Overcast
12:54 AM 21.2 °F 6.4 °F 19.4 °F 93% 30.03 in 3.0 mi West 18.4 mph 28.8 mph N/A Snow Light Snow
1:34 AM 21.2 °F 4.9 °F 19.4 °F 93% 30.04 in 7.0 mi West 23.0 mph 28.8 mph N/A Snow Light Snow
1:54 AM 21.2 °F 4.5 °F 17.6 °F 86% 30.04 in 7.0 mi West 24.2 mph 33.4 mph N/A   Overcast
2:14 AM 21.2 °F 5.6 °F 17.6 °F 86% 30.05 in 5.0 mi WNW 20.7 mph 32.2 mph N/A Snow Light Snow
2:34 AM 21.2 °F 6.4 °F 17.6 °F 86% 30.06 in 7.0 mi West 18.4 mph 26.5 mph N/A   Overcast
2:54 AM 21.2 °F 4.5 °F 17.6 °F 86% 30.07 in 5.0 mi WNW 24.2 mph 33.4 mph N/A Snow Light Snow
3:14 AM 21.2 °F 5.6 °F 17.6 °F 86% 30.07 in 4.0 mi WNW 20.7 mph 29.9 mph N/A Snow Light Snow
3:34 AM 19.4 °F 2.8 °F 17.6 °F 93% 30.08 in 3.0 mi West 21.9 mph 28.8 mph N/A Snow Light Snow
3:54 AM 19.4 °F 2.8 °F 17.6 °F 93% 30.08 in 5.0 mi WNW 21.9 mph 28.8 mph N/A   Overcast
4:14 AM 19.4 °F 2.5 °F 17.6 °F 93% 30.10 in 4.0 mi WNW 23.0 mph 29.9 mph N/A Snow Light Snow
4:34 AM 19.4 °F 1.8 °F 15.8 °F 86% 30.11 in 10.0 mi WNW 25.3 mph 35.7 mph N/A   Overcast
4:54 AM 19.4 °F 2.5 °F 12.2 °F 74% 30.12 in 10.0 mi WNW 23.0 mph 34.5 mph N/A   Overcast
5:14 AM 17.6 °F -0.3 °F 12.2 °F 79% 30.13 in 10.0 mi WNW 24.2 mph 36.8 mph N/A   Mostly Cloudy
5:34 AM 17.6 °F 1.7 °F 12.2 °F 79% 30.14 in 10.0 mi WNW 18.4 mph 32.2 mph N/A   Overcast
5:54 AM 17.6 °F 0.9 °F 12.2 °F 79% 30.15 in 7.0 mi WNW 20.7 mph 32.2 mph N/A Snow Light Snow
6:14 AM 17.6 °F 2.2 °F 12.2 °F 79% 30.16 in 7.0 mi WNW 17.3 mph 28.8 mph N/A Snow Light Snow
6:34 AM 17.6 °F 2.2 °F 12.2 °F 79% 30.18 in 10.0 mi WNW 17.3 mph 27.6 mph N/A Snow Light Snow
6:54 AM 17.6 °F 0.9 °F 12.2 °F 79% 30.19 in 5.0 mi WNW 20.7 mph 26.5 mph N/A Snow Light Snow
7:14 AM 15.8 °F -1.1 °F 12.2 °F 86% 30.20 in 5.0 mi WNW 19.6 mph 28.8 mph N/A Snow Light Snow
7:34 AM 17.6 °F 3.7 °F 12.2 °F 79% 30.21 in 7.0 mi WNW 13.8 mph 23.0 mph N/A Snow Light Snow
7:54 AM 17.6 °F 2.2 °F 12.2 °F 79% 30.21 in 5.0 mi WNW 17.3 mph 24.2 mph N/A Snow Light Snow
8:14 AM 17.6 °F 1.3 °F 12.2 °F 79% 30.22 in 7.0 mi WNW 19.6 mph 26.5 mph N/A Snow Light Snow
8:34 AM 17.6 °F 3.7 °F 12.2 °F 79% 30.23 in 7.0 mi WNW 13.8 mph 24.2 mph N/A Snow Light Snow
8:54 AM 19.4 °F 5.0 °F 14.0 °F 80% 30.24 in 5.0 mi NW 16.1 mph 23.0 mph N/A Snow Light Snow
9:14 AM 19.4 °F 5.0 °F 15.8 °F 86% 30.25 in 4.0 mi WNW 16.1 mph 26.5 mph N/A Snow Light Snow
9:34 AM 19.4 °F 4.5 °F 15.8 °F 86% 30.26 in 4.0 mi NW 17.3 mph 28.8 mph N/A Snow Light Snow
9:54 AM 19.4 °F 7.2 °F 15.8 °F 86% 30.27 in 3.0 mi NW 11.5 mph 23.0 mph N/A Snow Light Snow
10:14 AM 19.4 °F 3.6 °F 15.8 °F 86% 30.27 in 7.0 mi WNW 19.6 mph 29.9 mph N/A Snow Light Snow
10:34 AM 21.2 °F 6.0 °F 15.8 °F 80% 30.28 in 7.0 mi NW 19.6 mph 25.3 mph N/A Snow Light Snow
10:54 AM 21.2 °F 5.6 °F 15.8 °F 80% 30.29 in 10.0 mi NW 20.7 mph 29.9 mph N/A Snow Light Snow
11:14 AM 21.2 °F 6.8 °F 15.8 °F 80% 30.29 in 10.0 mi NW 17.3 mph 26.5 mph N/A Snow Light Snow
11:34 AM 21.2 °F 5.2 °F 15.8 °F 80% 30.29 in 10.0 mi NW 21.9 mph 29.9 mph N/A   Overcast
11:54 AM 21.2 °F 6.4 °F 15.8 °F 80% 30.29 in 10.0 mi NW 18.4 mph 31.1 mph N/A   Overcast
12:14 PM 23.0 °F 8.0 °F 15.8 °F 74% 30.29 in 10.0 mi NW 20.7 mph 29.9 mph N/A   Overcast
12:34 PM 24.8 °F 10.3 °F 15.8 °F 69% 30.29 in 10.0 mi NNW 20.7 mph 25.3 mph N/A   Overcast
12:54 PM 24.8 °F 11.9 °F 15.8 °F 69% 30.29 in 10.0 mi NW 16.1 mph 25.3 mph N/A   Overcast
1:14 PM 24.8 °F 12.4 °F 15.8 °F 69% 30.29 in 10.0 mi NW 15.0 mph 24.2 mph N/A   Overcast
1:34 PM 26.6 °F 14.3 °F 17.6 °F 69% 30.29 in 10.0 mi NW 16.1 mph 20.7 mph N/A   Mostly Cloudy
1:54 PM 26.6 °F 15.7 °F 17.6 °F 69% 30.29 in 10.0 mi WNW 12.7 mph 20.7 mph N/A   Overcast
2:13 PM 26.6 °F 14.7 °F 15.8 °F 64% 30.30 in 10.0 mi WNW 15.0 mph 21.9 mph N/A   Overcast
2:34 PM 26.6 °F 14.7 °F 15.8 °F 64% 30.30 in 10.0 mi WNW 15.0 mph 21.9 mph N/A   Overcast
2:54 PM 26.6 °F 15.2 °F 15.8 °F 64% 30.31 in 10.0 mi WNW 13.8 mph 23.0 mph N/A   Overcast
3:14 PM 26.6 °F 15.2 °F 15.8 °F 64% 30.31 in 10.0 mi WNW 13.8 mph 20.7 mph N/A   Overcast
3:34 PM 24.8 °F 14.0 °F 15.8 °F 69% 30.32 in 10.0 mi WNW 11.5 mph 20.7 mph N/A   Overcast
3:53 PM 24.8 °F 13.4 °F 15.8 °F 69% 30.33 in 10.0 mi WNW 12.7 mph 18.4 mph N/A   Overcast
4:14 PM 24.8 °F 11.5 °F 15.8 °F 69% 30.33 in 10.0 mi WNW 17.3 mph 23.0 mph N/A   Overcast
4:34 PM 24.8 °F 11.9 °F 17.6 °F 74% 30.33 in 10.0 mi West 16.1 mph 19.6 mph N/A   Overcast
4:54 PM 24.8 °F 12.9 °F 15.8 °F 69% 30.33 in 10.0 mi WNW 13.8 mph 17.3 mph N/A   Overcast
5:14 PM 23.0 °F 9.6 °F 15.8 °F 74% 30.34 in 10.0 mi WNW 16.1 mph - N/A   Overcast
5:34 PM 23.0 °F 9.2 °F 15.8 °F 74% 30.35 in 10.0 mi WNW 17.3 mph - N/A   Overcast
5:54 PM 23.0 °F 8.7 °F 15.8 °F 74% 30.35 in 10.0 mi West 18.4 mph 21.9 mph N/A   Overcast
6:14 PM 21.2 °F 7.3 °F 15.8 °F 80% 30.35 in 10.0 mi WNW 16.1 mph 20.7 mph N/A   Overcast
6:34 PM 21.2 °F 8.9 °F 15.8 °F 80% 30.35 in 10.0 mi WNW 12.7 mph 19.6 mph N/A   Overcast
6:54 PM 21.2 °F 9.5 °F 15.8 °F 80% 30.36 in 10.0 mi WNW 11.5 mph 19.6 mph N/A   Overcast
7:14 PM 21.2 °F 9.5 °F 15.8 °F 80% 30.35 in 10.0 mi WNW 11.5 mph 19.6 mph N/A   Overcast
7:34 PM 21.2 °F 9.5 °F 15.8 °F 80% 30.35 in 10.0 mi WNW 11.5 mph 17.3 mph N/A   Overcast
7:54 PM 19.4 °F 6.0 °F 15.8 °F 86% 30.35 in 10.0 mi WNW 13.8 mph - N/A   Overcast
8:14 PM 19.4 °F 7.9 °F 15.8 °F 86% 30.35 in 10.0 mi WNW 10.4 mph - N/A   Overcast
8:33 PM 19.4 °F 8.6 °F 15.8 °F 86% 30.35 in 10.0 mi WNW 9.2 mph - N/A   Overcast
8:54 PM 19.4 °F 8.6 °F 14.0 °F 80% 30.35 in 10.0 mi WNW 9.2 mph - N/A   Overcast
9:14 PM 19.4 °F 8.6 °F 14.0 °F 80% 30.35 in 10.0 mi NW 9.2 mph - N/A   Overcast
9:33 PM 17.6 °F 6.4 °F 14.0 °F 86% 30.35 in 10.0 mi WNW 9.2 mph - N/A   Overcast
9:54 PM 17.6 °F 7.3 °F 14.0 °F 86% 30.34 in 10.0 mi NW 8.1 mph - N/A   Overcast
10:14 PM 15.8 °F 5.1 °F 12.2 °F 86% 30.33 in 10.0 mi WNW 8.1 mph - N/A   Mostly Cloudy
10:34 PM 15.8 °F 5.1 °F 12.2 °F 86% 30.34 in 10.0 mi WNW 8.1 mph - N/A   Clear
10:54 PM 15.8 °F 6.1 °F 12.2 °F 86% 30.33 in 10.0 mi WNW 6.9 mph - N/A   Clear
11:14 PM 15.8 °F 4.2 °F 12.2 °F 86% 30.33 in 10.0 mi WNW 9.2 mph - N/A   Clear
11:33 PM 15.8 °F 6.1 °F 12.2 °F 86% 30.33 in 10.0 mi WNW 6.9 mph - N/A   Clear
11:54 PM 14.0 °F 2.9 °F 12.2 °F 93% 30.33 in 10.0 mi WNW 8.1 mph - N/A   Clear